ONEWEB-0316 (49102 NORAD) Tracking and Keplerian Element Data

This shows tracking and keplerian element data for the satellite.

Feedback or suggestion? Click here.




ElementValue
Catalog49102
NameONEWEB-0316
Epoch Orbit1142
Epoch Day300.91667824
Epoch Year2021
RAAN342.6057
Inclination87.2013
Eccentricity0.0020222
Argument of Perigee53.2696
Mean Anonmoly11.2516
Mean Motion14.85792263
Decay Rate0.00028299
L11 49102U 21075AD 21300.91667824 .00028299 00000-0 32317-2 0 9998
L22 49102 87.2013 342.6057 0020222 53.2696 11.2516 14.85792263 11426

Live tracking and technical data element details for ONEWEB-0316 (NORAD 49102). ONEWEB-0316 can be tracked NOW for your location showing map with azimuth and elevation plus other details from your city location.

Track the satellite on the map from your city or location and see movement details for azimuth, elevation, latitude, longitude, range, height, and movement on the map or in text.







IsCatalogInMostPopularTable: catalog: 49102, numindb: 11
Update: records affected: 1



GetName: 49102 ONEWEB-0316

Hit Count: updated at: Thu, 28 Oct 2021 11:57:03 GMT